Weather History for Berlin, NH

Change the Weather History Date:

Monday, March 11, 2013

  Actual Average Record
Temperature  
Mean Temperature 40 °F -  
Max Temperature 48 °F 31 °F 50 °F (2012)
Min Temperature 33 °F 9 °F -15 °F (2005)
Degree Days  
Heating Degree Days 26    
Moisture  
Dew Point 27 °F    
Average Humidity 60    
Maximum Humidity 82    
Minimum Humidity 43    
Precipitation  
Precipitation 0.00 in - - ()
Sea Level Pressure  
Sea Level Pressure 30.12 in    
Wind  
Wind Speed 4 mph (SSE)    
Max Wind Speed 9 mph    
Max Gust Speed -    
Visibility 10 miles    
Events      
Averages and records for this station are not official NWS values.
T = Trace of Precipitation, MM = Missing Value Source: NWS Daily Summary

Daily Weather History Graph

Daily Weather History Graph

Search for Another Location

Airport:

Trip Planner

Search our weather history database for the weather conditions in past years. The results will help you decide how hot, cold, wet, or windy it might be!

Date:

Astronomy

Mar. 11, 2013 Rise Set
Actual Time 7:04 AM EDT 6:45 PM EDT
Civil Twilight 6:35 AM EDT 7:15 PM EDT
Nautical Twilight 6:01 AM EDT 7:48 PM EDT
Astronomical Twilight 5:27 AM EDT 8:23 PM EDT
Moon 6:35 AM EDT (3/11) 6:57 PM EDT (3/11)
Length of Visible Light 12h 40m
Length of Day
11h 41m
Waning Crescent, 0% of the Moon is Illuminated
Mar 11
Waning Crescent
Mar 11
New
Mar 19
First Quarter
Mar 27
Full
Apr 3
Last Quarter

Hourly Weather History & Observations

Time (EDT) Temp. Windchill Dew Point Humidity Pressure Visibility Wind Dir Wind Speed Gust Speed Precip Events Conditions
12:52 AM 36.0 °F 32.1 °F 27.0 °F 70% 30.22 in 10.0 mi SE 4.6 mph - N/A   Overcast
1:52 AM 35.1 °F 32.2 °F 27.0 °F 72% 30.22 in 10.0 mi South 3.5 mph - N/A   Scattered Clouds
2:52 AM 33.1 °F 30.0 °F 27.0 °F 78% 30.19 in 10.0 mi SE 3.5 mph - N/A   Clear
3:52 AM 33.1 °F 28.7 °F 27.0 °F 78% 30.15 in 10.0 mi SSE 4.6 mph - N/A   Mostly Cloudy
4:52 AM 33.1 °F 30.0 °F 27.0 °F 78% 30.14 in 10.0 mi SSE 3.5 mph - N/A   Clear
6:52 AM 33.1 °F 30.0 °F 28.0 °F 82% 30.18 in 10.0 mi SSE 3.5 mph - N/A   Clear
7:52 AM 33.1 °F - 28.0 °F 82% 30.18 in 10.0 mi Calm Calm - N/A   Scattered Clouds
8:52 AM 35.1 °F - 28.0 °F 76% 30.18 in 10.0 mi Calm Calm - N/A   Clear
9:52 AM 37.9 °F - 28.0 °F 68% 30.16 in 10.0 mi Calm Calm - N/A   Clear
10:52 AM 42.1 °F - 28.0 °F 58% 30.15 in 10.0 mi Calm Calm - N/A   Clear
11:52 AM 46.0 °F - 28.0 °F 50% 30.12 in 10.0 mi Calm Calm - N/A   Clear
12:52 PM 46.9 °F - 28.9 °F 50% 30.12 in 10.0 mi South 3.5 mph - N/A   Clear
1:52 PM 46.9 °F - 28.9 °F 50% 30.11 in 10.0 mi South 8.1 mph - N/A   Clear
2:52 PM 46.9 °F - 28.9 °F 50% 30.09 in 9.0 mi SSE 9.2 mph - N/A   Clear
3:52 PM 46.0 °F 41.9 °F 28.9 °F 51% 30.07 in 10.0 mi SSE 8.1 mph - N/A   Clear
4:52 PM 46.9 °F - 28.9 °F 50% 30.07 in 10.0 mi South 6.9 mph - N/A   Clear
5:52 PM 46.0 °F 43.9 °F 28.0 °F 50% 30.07 in 10.0 mi SSE 4.6 mph - N/A   Clear
6:52 PM 46.0 °F 43.1 °F 26.1 °F 46% 30.07 in 10.0 mi SSE 5.8 mph - N/A   Mostly Cloudy
7:52 PM 45.0 °F 41.8 °F 26.1 °F 48% 30.07 in 10.0 mi East 5.8 mph - N/A   Mostly Cloudy
8:52 PM 43.0 °F 40.3 °F 26.1 °F 51% 30.06 in 10.0 mi South 4.6 mph - N/A   Partly Cloudy
9:52 PM 44.1 °F 39.0 °F 26.1 °F 49% 30.06 in 10.0 mi SE 9.2 mph - N/A   Clear
10:52 PM 44.1 °F 41.5 °F 23.0 °F 43% 30.05 in 10.0 mi South 4.6 mph - N/A   Clear
11:52 PM 39.9 °F - 26.1 °F 58% 30.03 in 10.0 mi Calm Calm - N/A   Clear